Location: Dareville
(38.1984°N, 88.9765°W)
Time: 05:19:56
(UTC+00:00)

Daily predictions for brighter satellites

Satellite Brightness Start Highest point End
(mag) Time Altitude Azimuth Time Altitude Azimuth Time Altitude Azimuth
ISS -2.0 00:00:02 10° NNW 00:02:03 19° N 00:02:03 19° N
Cosmos 2082 Rocket 2.5 00:00:33 10° SSW 00:06:12 68° WNW 00:11:52 10° NNE
SL-16 R/B 3.8 00:03:00 10° N 00:05:04 16° NNE 00:05:04 16° NNE
ATLAS 5 CENTAUR R/B 4.0 00:05:32 10° NNW 00:08:17 14° NNE 00:08:17 14° NNE
CZ-2D R/B 4.1 00:06:10 10° S 00:09:54 52° W 00:13:40 10° NNW
Cosmos 372 Rocket 3.9 00:07:24 10° NNW 00:12:40 81° ENE 00:17:54 10° SSE
Cosmos 1666 Rocket 3.4 00:10:23 10° N 00:14:50 84° E 00:19:13 10° S
Cosmos 1328 Rocket 3.4 00:11:36 10° S 00:16:02 79° E 00:19:19 18° N
CZ-4 R/B 4.3 00:13:29 10° SSE 00:17:34 72° ENE 00:21:42 10° N
CZ-2C R/B 2.6 00:15:37 10° SW 00:19:06 25° SSE 00:19:38 25° SSE
Meteor 1-27 Rocket 4.4 00:15:15 10° SSE 00:19:10 31° ESE 00:19:10 31° ESE
Lacrosse 5 rocket 3.7 00:18:35 10° N 00:18:55 11° N 00:18:55 11° N
Cosmos 2278 3.6 00:15:35 10° NNW 00:21:15 60° ENE 00:26:50 10° SE
ARGOS 3.1 00:21:20 10° SSE 00:26:45 89° WSW 00:32:11 10° NNW
SKYMED 2 4.3 00:23:03 10° N 00:27:16 52° WNW 00:31:28 10° SSW
IRAS Rocket 4.4 00:28:34 44° E 00:28:59 45° E 00:34:14 10° S
Landsat 5 3.6 00:26:39 24° N 00:28:59 70° WNW 00:32:55 10° SSW
COSMOS 2455 4.1 00:25:56 10° WSW 00:31:28 38° NW 00:36:35 12° N
SL-08 RB Rocket 3.6 00:28:34 10° SSE 00:33:13 77° ENE 00:37:50 10° N
Meteor 2-15 4.3 00:29:25 10° S 00:35:33 86° E 00:41:41 10° N
Meteor 2-6 Rocket 4.4 00:30:45 10° SSW 00:36:32 73° W 00:42:13 10° N
Cosmos 1655 Rocket 3.9 00:33:17 10° N 00:39:41 68° E 00:45:59 10° SSE
DMSP B5D2-2 3.9 00:40:33 57° NE 00:41:31 72° ESE 00:46:43 10° S
NOAA 15 4.5 00:36:19 10° SSE 00:41:33 67° ENE 00:46:48 10° N
USA 234 3.8 00:37:34 10° SSE 00:43:57 56° SW 00:50:22 10° NW
CZ-4B R/B 4.1 00:40:02 10° S 00:45:17 48° W 00:50:28 10° NNW
GEOS 3 Rocket 4.3 00:46:40 39° N 00:46:40 39° N 00:50:23 10° NNW
H-2A R/B 4.4 00:49:35 14° S 00:49:35 14° S 00:50:18 10° S
GPS 2-04 Rocket1 3.6 00:43:23 10° W 00:47:01 45° SSW 00:47:01 45° SSW
DMSP 5D-2 F-14 4.5 00:44:20 10° SSE 00:49:45 73° ENE 00:55:11 10° N
CZ-2C R/B 4.0 00:47:30 10° N 00:52:10 35° WNW 00:56:48 10° SW
Cosmos 1818 4.5 00:48:23 10° NNW 00:51:49 35° N 00:51:49 35° N
Meteor 1-10 Rocket 4.5 00:49:55 10° SSW 00:55:42 69° W 00:59:17 24° N
Cosmos 1515 Rocket 4.0 00:52:57 10° SSW 00:56:51 60° WSW 00:56:51 60° WSW
CZ-4C R/B 3.1 01:09:25 10° NW 01:17:02 76° WSW 01:21:47 30° SSE
SL-16 R/B 4.4 01:45:51 10° NNW 01:46:59 16° NNW 01:46:59 16° NNW
ATLAS 3B CENTAUR R/B 4.4 01:42:28 10° WSW 02:00:46 56° S 02:02:42 53° SSE
Cosmos 2369 Rocket 3.1 10:05:54 38° SE 10:07:20 46° ESE 10:12:40 10° NE
Cosmos 1943 Rocket 3.8 10:35:16 21° N 10:35:16 21° N 10:37:12 10° N
COSMO-SKYMED 1 4.5 10:28:39 10° SE 10:32:20 28° ENE 10:35:30 13° NNE
CZ-2C R/B 4.0 10:28:48 10° SE 10:33:47 37° ENE 10:38:42 10° N
CENTAUR R/B 3.5 10:38:46 32° NNW 10:38:46 32° NNW 10:43:25 10° NNE
Envisat 3.6 10:36:43 10° NNE 10:41:43 55° E 10:46:40 10° S
Cosmos 2098 Rocket 3.6 10:40:46 10° SSE 10:44:22 52° E 10:48:52 10° NNE
DELTA 2 R/B (1) 3.6 10:47:14 59° SW 10:48:14 76° SSE 10:53:47 10° ENE
Cosmos 2034 Rocket 4.4 10:51:33 43° WSW 10:51:33 43° WSW 10:56:27 10° SSW
Genesis I 3.3 10:52:06 77° E 10:52:06 77° E 10:55:57 10° SE
NOSS 3-2 (C) 4.1 11:00:56 33° NNW 11:00:56 33° NNW 11:05:57 10° NNE
Cosmos 1812 2.7 11:03:50 38° N 11:05:13 77° E 11:09:02 10° S
ATLAS 3B R/B 4.4 11:00:13 10° S 11:05:46 31° ESE 11:11:29 10° NE
MOS 1-B Rocket 3.9 11:00:02 10° S 11:06:34 80° WSW 11:12:21 10° NNW
CBERS 1 LM4 rocket 4.5 11:02:23 10° NNE 11:07:18 80° ESE 11:12:23 10° S
SJ 16-02 3.8 11:05:13 10° SSE 11:08:43 24° E 11:12:14 10° NE
Cosmos 1634 Rocket 3.9 11:05:26 10° NNW 11:11:40 70° W 11:17:50 10° S
ADEOS 4.2 11:10:47 10° NNE 11:15:57 58° ESE 11:21:04 10° S
CZ-4B R/B 4.0 11:12:23 10° N 11:16:52 81° WNW 11:21:19 10° SSW
Landsat 5 3.9 11:12:49 10° SSE 11:17:17 68° ENE 11:21:45 10° N
Tsikada Rocket 4.5 11:11:52 10° SW 11:17:25 35° WNW 11:23:05 10° N
Meteor 2-6 Rocket 4.2 11:13:06 10° N 11:18:32 76° E 11:23:54 10° SSE
CZ-4C R/B 4.0 11:16:31 10° SE 11:19:29 40° ENE 11:22:17 11° N
ATLAS 5 CENTAUR R/B 3.0 11:16:28 10° S 11:19:51 34° ESE 11:23:29 10° NE
SKYMED 2 3.4 11:15:54 10° S 11:20:14 83° WSW 11:24:07 13° NNW
Meteor 1-31 Rocket 2.7 11:24:06 10° N 11:27:56 58° WNW 11:31:47 10° SSW
CZ-2C R/B 4.0 11:23:47 10° NNE 11:28:34 49° E 11:33:33 10° S
Cosmos 1782 4.1 11:33:13 22° WSW 11:33:13 22° WSW 11:35:25 10° SW
USA 215 3.7 11:25:49 10° ESE 11:32:10 57° NE 11:37:55 13° NW
Cosmos 921 Rocket 3.5 11:30:39 28° NW 11:32:21 41° W 11:36:33 10° S
Cosmos 1833 4.4 11:27:48 10° NNW 11:33:31 72° ENE 11:39:14 10° SSE
H-2A R/B 3.4 11:32:03 10° N 11:35:22 31° WNW 11:38:43 10° SW
Cosmos 1862 3.6 11:33:39 10° SSW 11:37:22 40° W 11:41:07 10° N
H-2A R/B 3.8 11:34:11 10° SE 11:37:56 31° ENE 11:41:46 10° N
Cosmos 836 Rocket 4.5 11:33:20 13° NNW 11:37:58 62° WSW 11:43:04 10° S
Meteor 1-10 Rocket 4.2 11:33:52 10° N 11:39:26 84° E 11:44:59 10° S
Okean 3 Rocket 3.9 11:36:54 10° SSW 11:41:15 45° W 11:45:38 10° N
Cosmos 2180 Rocket 4.4 11:36:54 10° N 11:43:04 83° W 11:49:11 10° S
Cosmos 1151 Rocket 3.5 11:42:46 12° NNW 11:46:34 39° W 11:50:36 10° SSW
Cosmos 1503 Rocket 4.3 11:43:39 10° SW 11:48:40 46° WNW 11:53:47 10° N
Meteor 2-8 Rocket 4.4 11:43:13 10° NNW 11:49:20 72° W 11:55:23 10° S
Cosmos 1766 Rocket 4.2 11:46:19 10° SW 11:50:10 31° WNW 11:54:01 10° NNW
BREEZE-M DEB (TANK) 4.2 11:37:04 14° NW 11:51:32 59° SW 11:56:21 10° SSE
Cosmos 2369 Rocket 3.2 11:47:55 13° WSW 11:51:33 24° WNW 11:56:02 10° N
BREEZE-M DEB (TANK) 4.5 11:41:05 14° WNW 11:51:47 59° NNE 11:55:37 10° ESE
SL-27 R/B 3.3 11:51:47 10° N 11:55:17 50° ENE 11:58:42 10° SSE
